• Join FlightAware (Why Join?)
  • Login
  • US Flag 
08:12PM EDT


 

Airport Tracker/Info


-or-


 

Live Flight TrackerFlight Track Log ✈ XOJ793 ✈ 11-Aug-2014 ✈ KFOK - KGSO

Flight Track Log - Related Links

Times and Time Zones

All times are in EDT time to prevent confusion due to time zone crossing. See the XOJ793 flight status page for this flight to view local times or setup timezone preferences in your user account.

Time Position Orientation Groundspeed Altitude Reporting Facility
EDT Latitude Longitude Course Direction KTS MPH feet Rate Location/Type
01:22PM 40.7589 -72.6547 179° South 248 285 6,300  Level Boston Center
01:23PM 40.6858 -72.6308 166° South 270 311 10,300 2,700 Climbing Boston Center
01:24PM 40.6031 -72.6967 211° Southwest 366 421 11,900 2,280 Climbing Boston Center
01:25PM 40.5378 -72.8156 234° Southwest 403 464 15,100 2,940 Climbing Boston Center
01:26PM 40.5092 -72.9628 256° West 411 473 18,000 2,700 Climbing Boston Center
01:27PM 40.4811 -73.1133 256° West 412 474 20,700 2,040 Climbing Boston Center
01:28PM 40.4522 -73.2572 255° West 409 471 22,300 1,440 Climbing Boston Center
01:29PM 40.4228 -73.4069 256° West 421 484 23,700 1,500 Climbing Boston Center
01:30PM 40.3858 -73.5950 256° West 442 509 25,400 1,500 Climbing Boston Center
01:31PM 40.3544 -73.7522 255° West 455 524 26,800 1,320 Climbing Boston Center
01:32PM 40.3222 -73.9158 256° West 463 533 28,200 1,380 Climbing Boston Center
01:33PM 40.2881 -74.0825 255° West 457 526 29,600 1,380 Climbing New York Center
01:34PM 40.2542 -74.2467 255° West 463 533 31,000 1,140 Climbing New York Center
01:35PM 40.2200 -74.4133 255° West 474 545 32,000 480 Climbing New York Center
01:36PM 40.1953 -74.5969 260° West 490 564 32,000 600 Level New York Center
01:37PM 40.1792 -74.7700 263° West 495 570 33,200 1,140 Climbing New York Center
01:38PM 40.1692 -74.9406 266° West 495 570 34,400 1,200 Climbing New York Center
01:39PM 40.1567 -75.1108 265° West 484 557 35,600 1,140 Climbing New York Center
01:40PM 40.1397 -75.2808 263° West 477 549 36,800 1,200 Climbing New York Center
01:41PM 40.0942 -75.4381 249° West 477 549 38,000 1,200 Climbing New York Center
01:42PM 40.0014 -75.5672 227° Southwest 458 527 39,200 1,140 Climbing New York Center
01:43PM 39.9086 -75.6961 227° Southwest 478 550 40,400 1,140 Climbing New York Center
01:44PM 39.8239 -75.8256 230° Southwest 483 556 41,600 1,200 Climbing New York Center
01:45PM 39.7519 -75.9472 232° Southwest 483 556 42,800 660 Climbing New York Center
01:46PM 39.6647 -76.0756 229° Southwest 483 556 43,000 120 Climbing New York Center
01:47PM 39.6144 -76.1572 231° Southwest 484 557 43,000  Level Washington Center
01:48PM 39.5261 -76.2911 229° Southwest 479 551 43,000  Level Washington Center
01:49PM 39.4419 -76.4219 230° Southwest 479 551 43,000  Level Washington Center
01:50PM 39.3556 -76.5525 229° Southwest 479 551 43,000 -60 Level Washington Center
01:51PM 39.2689 -76.6881 230° Southwest 484 557 42,900 -780 Descending Washington Center
01:52PM 39.1822 -76.8258 231° Southwest 489 563 41,500 -1,500 Descending Washington Center
01:53PM 39.0975 -76.9583 231° Southwest 496 571 40,000 -1,500 Descending Washington Center
01:54PM 39.0064 -77.0822 227° Southwest 490 564 38,500 -1,020 Descending Washington Center
01:55PM 38.9028 -77.1947 220° Southwest 490 564 38,000 -780 Descending Washington Center
01:56PM 38.7947 -77.3097 220° Southwest 503 579 37,000 -1,920 Descending Washington Center
01:57PM 38.6889 -77.4242 220° Southwest 509 586 34,300 -2,880 Descending Washington Center
01:58PM 38.5786 -77.5436 220° Southwest 509 586 31,400 -2,160 Descending Washington Center
01:59PM 38.4744 -77.6628 222° Southwest 509 586 30,000 -720 Descending Washington Center
02:00PM 38.3639 -77.7789 219° Southwest 515 593 30,000  Level Washington Center
02:01PM 38.2597 -77.8922 221° Southwest 515 593 30,000  Level Washington Center
02:02PM 38.1511 -78.0078 220° Southwest 515 593 30,000  Level Washington Center
02:03PM 38.0444 -78.1231 220° Southwest 515 593 30,000 -240 Level Washington Center
02:04PM 37.9519 -78.2517 228° Southwest 500 575 29,600 -960 Descending Washington Center
02:05PM 37.8592 -78.3825 228° Southwest 505 581 28,100 -840 Descending Washington Center
02:06PM 37.7600 -78.5258 229° Southwest 505 581 28,000 -600 Descending Washington Center
02:07PM 37.6669 -78.6561 228° Southwest 505 581 27,000 -540 Descending Washington Center
02:08PM 37.5758 -78.7861 229° Southwest 505 581 27,000  Level Washington Center
02:09PM 37.4850 -78.9131 228° Southwest 505 581 27,000 -60 Level Washington Center
02:10PM 37.3958 -79.0400 229° Southwest 500 575 26,900 -840 Descending Washington Center
02:11PM 37.3044 -79.1664 228° Southwest 500 575 25,400 -1,500 Descending Washington Center
02:12PM 37.2150 -79.2925 228° Southwest 500 575 23,900 -1,500 Descending Washington Center
02:13PM 37.1158 -79.3947 219° Southwest 482 555 22,400 -1,560 Descending Washington Center
02:14PM 36.9950 -79.4614 204° Southwest 470 541 20,800 -2,040 Descending Washington Center
02:15PM 36.8867 -79.5208 204° Southwest 455 524 18,400 -2,460 Descending Washington Center
02:16PM 36.7781 -79.5803 204° Southwest 435 501 15,900 -2,460 Descending Washington Center
02:18PM 36.5981 -79.6769 203° Southwest  Level Estimated
02:25PM 36.1013 -79.9411 203° Southwest  Level Estimated
02:26PM 36.1000 -79.9333 15° North  Level FlightAware Approximate
02:27PM 36.1013 -79.9411 15° North  Level Estimated
02:28PM 36.1000 -79.9333 15° North  Level FlightAware Approximate
02:29PM 36.1013 -79.9411 15° North  Level Estimated
02:30PM 36.1000 -79.9333 15° North  Level FlightAware Approximate
02:31PM 36.1013 -79.9411 15° North  Level Estimated
02:32PM 36.1000 -79.9333 15° North  Level FlightAware Approximate
02:33PM 36.1013 -79.9411 15° North  Level Estimated